Location: Charbonni�res
(45.9952°N, 2.9982°E)
Time: 17:55:40
(UTC+00:00)

YAOGAN 6 - Pass Details

Date: 29 November 2020
Orbit: 466 x 502 km, 97.0° (Epoch: 23 January)

Event Time Altitude Azimuth Distance (km) Brightness Sun altitude
Rises 05:23:37 0° 19° (NNE) 2,527 6.3 -17.5°
Reaches altitude 10° 05:25:47 10° 27° (NNE) 1,640 5.4 -17.1°
Maximum altitude 05:29:06 39° 98° (E) 716 4.0 -16.5°
Drops below altitude 10° 05:32:23 10° 169° (SSE) 1,618 5.5 -16.0°
Sets 05:34:30 0° 177° (S) 2,487 6.4 -15.6°
